Voltar ao catálogo

COSMOS 2014

AtivoMilitarLEO
NORAD 19908·PAYLOAD·🇷🇺 Russia

Lançado Mar 24, 1989 de Plesetsk Cosmodrome

Loading…

Próximas Passagens (próximas 24 horas)

TLE

AtualizadoSource: Space-Track

Época: Sep 14, 2026, 15:04 UTC

1 19908U 89025G   26257.62795314 -.00000002  00000-0  97955-4 0  9992
2 19908  74.0111 311.9485 0012636   8.9122 159.1623 12.46291291704986

Acompanhe COSMOS 2014 em tempo real com AllMySat

Download on the App Store